#timestamp,LO_Frequency,Hit,StdDev 
1513296015.6,286046997.4,N
1513296035.5,286046997.4,N
1513296055.3,286046995.7,N
1513296075.1,286046995.3,N
1513296095.9,286046995.6,N
1513296115.7,286046995.2,N
1513296135.5,286046995.5,N
1513296155.4,286046996.7,N
1513296175.2,286046997.9,N
1513296195.1,286046997.5,N
1513296196.0,286046997.5,N
1513296215.8,286046997.1,N
1513296235.6,286046996.8,N
1513296255.5,286046997.3,N
1513296275.3,286046995.0,Y
1513296295.2,286047000.7,P
1513296315.9,286046999.9,N
1513296335.7,286046999.7,N
1513296355.6,286047000.4,N
1513296375.4,286046999.9,N
1513296395.2,286047000.4,N
1513296415.1,286047000.6,N
1513296416.0,286047000.6,N
1513296435.8,286047000.0,N
1513296455.7,286047002.3,N
1513296475.5,286047001.0,N
1513296495.3,286047000.3,N
1513296515.2,286047000.1,N
1513296535.0,286047000.6,N
1513296535.9,286047000.6,N
1513296555.8,286046999.8,N
1513296575.6,286047002.7,N
1513296595.4,286047004.3,Y
1513296615.3,286047002.2,P
1513296635.1,286047000.3,N
1513296655.8,286047000.6,N
1513296675.7,286047000.9,N
1513296695.5,286047000.5,N
1513296715.4,286046998.8,N
1513296735.2,286046998.5,N
1513296755.0,286046998.2,N
1513296755.9,286046998.2,N
1513296775.8,286046998.1,N
1513296795.6,286046998.4,N
1513296815.4,286046999.1,N
1513296835.3,286046996.9,N
1513296855.1,286046998.8,N
1513296875.9,286046999.9,N
1513296895.7,286047001.0,N
1513296915.5,286046999.4,N
1513296935.4,286047000.5,N
1513296955.2,286047000.2,N
1513296975.0,286047000.2,N
1513296975.9,286047000.2,N
1513296995.8,286046998.7,N
1513297015.6,286046996.8,N
1513297035.5,286046998.9,N
1513297055.3,286047001.2,N
1513297075.1,286047000.1,N
1513297095.9,286047001.0,N
1513297115.7,286046999.7,N
1513297135.6,286047002.5,N
1513297155.4,286047000.4,N
1513297175.2,286047001.1,N
1513297195.1,286047002.3,N
1513297196.0,286047002.3,N
1513297215.8,286047001.3,N
1513297235.6,286046999.7,N
1513297255.5,286047000.3,N
1513297275.3,286046999.9,N
1513297295.2,286047000.5,N
1513297315.9,286047000.7,N
1513297335.7,286046999.1,N
1513297355.6,286047001.2,N
1513297375.4,286046999.9,N
1513297395.3,286046999.8,N
1513297415.1,286047004.0,Y
1513297416.0,286047004.0,P
1513297435.8,286047002.0,N
1513297455.7,286047001.5,N
1513297475.5,286047004.4,Y
1513297495.4,286047000.4,P
1513297515.2,286047000.3,N
1513297535.0,286046998.9,N
1513297535.9,286046998.9,N
1513297555.8,286047000.7,N
1513297575.6,286047000.1,N
1513297595.4,286046998.4,N
1513297615.3,286046996.6,Y
1513297635.1,286046999.5,P
1513297655.9,286046998.5,P
1513297675.7,286047001.2,N
1513297695.5,286046998.9,N
1513297715.4,286047000.4,N
1513297735.2,286047002.7,N
1513297755.0,286047000.4,N
1513297755.9,286047000.4,N
1513297775.8,286046999.8,N
1513297795.6,286047000.0,N
1513297815.5,286047000.2,N
1513297835.3,286047000.3,N
1513297855.1,286047001.0,N
1513297875.9,286047000.5,N
1513297895.7,286046999.1,N
1513297915.5,286046998.5,N
1513297935.4,286047000.1,N
1513297955.2,286046999.8,N
1513297975.1,286046999.8,N
1513297976.0,286046999.8,N
1513297995.8,286047000.8,N
1513298015.6,286047000.3,N
1513298035.5,286047000.7,N
1513298055.3,286046998.1,N
1513298075.2,286046998.3,N
1513298095.9,286046998.6,N
1513298115.7,286046998.6,N
1513298135.6,286046998.4,N
1513298155.4,286046998.4,N
1513298175.2,286047000.8,N
1513298195.1,286047000.5,N
1513298196.0,286047000.5,N
1513298215.8,286047000.7,N
1513298235.7,286046998.1,N
1513298255.5,286047000.5,N
1513298275.3,286046999.4,N
1513298295.2,286046998.2,N
1513298315.0,286046998.7,N
1513298315.9,286046998.7,N
1513298335.7,286046999.9,N
1513298355.6,286047000.7,N
1513298375.4,286047000.8,N
1513298395.3,286046998.7,N
1513298415.1,286046998.5,N
1513298416.0,286046998.5,N
1513298435.8,286046999.5,N
1513298455.7,286046998.9,N
1513298475.5,286046998.4,N
1513298495.3,286046998.1,N
1513298515.2,286046998.1,N
1513298535.0,286047002.3,N
1513298535.9,286047002.3,N
1513298555.8,286047000.0,N
1513298575.6,286047000.0,N
1513298595.4,286047000.7,N
1513298615.3,286047001.0,N
1513298635.1,286046998.3,N
1513298655.9,286047000.3,N
1513298675.7,286047001.0,N
1513298695.5,286047002.6,N
1513298715.4,286047001.4,N
1513298735.2,286047003.1,N
1513298755.1,286047005.1,Y
1513298756.0,286047005.1,P
1513298775.8,286047003.5,N
1513298795.6,286047001.9,N
1513298815.5,286047001.4,N
1513298835.3,286047002.4,N
1513298855.1,286047002.8,N
1513298875.9,286047002.7,N
1513298895.7,286047000.4,N
1513298915.6,286047002.8,N
1513298935.4,286047001.6,N
1513298955.2,286047002.0,N
1513298975.1,286047002.8,N
1513298976.0,286047002.8,N
1513298995.8,286047001.6,N
1513299015.7,286046999.7,N
1513299035.5,286047002.6,N
1513299055.3,286047002.0,N
1513299075.2,286046999.7,N
1513299095.0,286047001.3,N
1513299095.9,286047001.3,N
1513299115.8,286047001.7,N
1513299135.6,286047004.0,Y
1513299155.4,286046998.6,P
1513299175.3,286047000.1,N
1513299195.1,286047001.0,N
1513299215.8,286046998.8,N
1513299235.7,286046996.6,N
1513299255.5,286046996.8,N
1513299275.4,286046999.6,N
1513299295.2,286046999.1,N
1513299315.0,286046997.3,N
1513299315.9,286046997.3,N
1513299335.8,286046998.7,N
1513299355.6,286046998.2,N
1513299375.5,286046998.6,N
1513299395.3,286047000.3,N
1513299415.1,286047001.0,N
1513299435.9,286047000.7,N
1513299455.7,286047000.9,N
1513299475.6,286047000.9,N
1513299495.4,286046998.2,N
1513299545.3,286047000.4,E
1513299555.2,286047000.7,N
1513299575.0,286047000.7,P
1513299575.9,286047000.7,P
1513299595.8,286047000.2,Y
